TimeEST,TemperatureF,Dew PointF,Humidity,Sea Level PressureIn,VisibilityMPH,Wind Direction,Wind SpeedMPH,Gust SpeedMPH,PrecipitationIn,Events,Conditions,WindDirDegrees,DateUTC
12:53 AM,64.0,63.0,96,30.16,7.0,Calm,Calm,-,0.02,Rain,Light Rain,0,2013-12-01 05:53:00
1:11 AM,64.4,62.6,94,30.15,2.0,WSW,4.6,-,0.06,Rain,Heavy Rain,240,2013-12-01 06:11:00
1:19 AM,64.4,62.6,94,30.14,6.0,WNW,6.9,-,0.06,Rain,Light Rain,300,2013-12-01 06:19:00
1:53 AM,63.0,62.1,97,30.14,7.0,SSE,9.2,-,0.06,,Mostly Cloudy,160,2013-12-01 06:53:00
2:53 AM,63.0,63.0,100,30.12,9.0,WSW,3.5,-,0.02,,Overcast,240,2013-12-01 07:53:00
3:53 AM,63.0,63.0,100,30.11,10.0,NW,6.9,-,0.01,,Overcast,310,2013-12-01 08:53:00
4:33 AM,64.4,62.6,94,30.10,7.0,West,5.8,-,0.00,Rain,Light Rain,270,2013-12-01 09:33:00
4:53 AM,64.0,63.0,96,30.11,9.0,WNW,5.8,-,0.00,,Overcast,290,2013-12-01 09:53:00
5:53 AM,64.0,63.0,96,30.11,5.0,NW,4.6,-,N/A,,Overcast,310,2013-12-01 10:53:00
6:53 AM,64.0,64.0,100,30.13,5.0,NW,5.8,-,N/A,,Overcast,310,2013-12-01 11:53:00
7:39 AM,64.4,64.4,100,30.13,5.0,NW,3.5,-,0.00,Rain,Light Rain,310,2013-12-01 12:39:00
7:53 AM,64.9,64.0,97,30.13,3.0,NW,4.6,-,0.00,,Overcast,320,2013-12-01 12:53:00
8:25 AM,66.2,64.4,94,30.14,2.5,NNW,9.2,-,0.00,Rain,Light Rain,340,2013-12-01 13:25:00
8:53 AM,66.0,64.9,96,30.15,2.5,North,9.2,-,0.01,Rain,Light Rain,350,2013-12-01 13:53:00
9:53 AM,66.9,64.9,93,30.16,1.8,North,8.1,-,0.08,Rain,Heavy Rain,350,2013-12-01 14:53:00
10:01 AM,66.2,64.4,94,30.16,3.0,North,11.5,-,0.01,Rain,Light Rain,360,2013-12-01 15:01:00
10:03 AM,66.2,64.4,94,30.16,1.8,North,8.1,-,0.02,Rain,Light Rain,360,2013-12-01 15:03:00
10:53 AM,66.9,66.0,97,30.15,2.0,North,10.4,-,0.23,Rain,Heavy Rain,360,2013-12-01 15:53:00
11:53 AM,68.0,66.0,93,30.13,2.0,North,10.4,-,0.13,Rain,Rain,360,2013-12-01 16:53:00
12:22 PM,69.8,66.2,88,30.11,2.5,North,10.4,-,0.01,Rain,Light Rain,10,2013-12-01 17:22:00
12:53 PM,69.1,66.9,93,30.09,5.0,North,9.2,-,0.01,,Overcast,360,2013-12-01 17:53:00
1:53 PM,69.1,66.0,90,30.07,5.0,North,10.4,-,0.00,,Overcast,360,2013-12-01 18:53:00
2:53 PM,68.0,66.0,93,30.05,5.0,North,11.5,-,0.00,Rain,Light Rain,10,2013-12-01 19:53:00
3:49 PM,68.0,66.2,94,30.05,2.0,NNE,5.8,-,0.02,Rain,Light Rain,20,2013-12-01 20:49:00
3:53 PM,68.0,66.0,93,30.05,2.0,NE,5.8,-,0.02,Rain,Light Rain,40,2013-12-01 20:53:00
4:51 PM,68.0,64.4,88,30.04,10.0,NNW,3.5,-,0.01,,Overcast,330,2013-12-01 21:51:00
4:53 PM,68.0,64.9,90,30.04,10.0,Calm,Calm,-,0.01,,Overcast,0,2013-12-01 21:53:00
5:53 PM,66.9,64.9,93,30.04,10.0,North,3.5,-,0.00,,Overcast,360,2013-12-01 22:53:00
6:53 PM,66.9,64.9,93,30.04,10.0,North,6.9,-,N/A,,Overcast,350,2013-12-01 23:53:00
7:53 PM,66.0,64.9,96,30.04,9.0,Calm,Calm,-,N/A,,Overcast,0,2013-12-02 00:53:00
8:53 PM,66.0,64.0,93,30.03,9.0,Calm,Calm,-,N/A,,Mostly Cloudy,0,2013-12-02 01:53:00
9:53 PM,64.9,64.0,97,30.02,9.0,North,3.5,-,N/A,,Mostly Cloudy,350,2013-12-02 02:53:00
10:29 PM,64.4,64.4,100,30.01,8.0,Calm,Calm,-,N/A,,Overcast,0,2013-12-02 03:29:00
10:53 PM,64.9,64.0,97,30.01,7.0,Calm,Calm,-,N/A,,Overcast,0,2013-12-02 03:53:00
11:53 PM,64.9,64.0,97,29.98,6.0,Calm,Calm,-,N/A,,Overcast,0,2013-12-02 04:53:00